Time,TemperatureF,DewpointF,PressureIn,WindDirection,WindDirectionDegrees,WindSpeedMPH,WindSpeedGustMPH,Humidity,HourlyPrecipIn,Conditions,Clouds,dailyrainin,SoftwareType,DateUTC
2013-06-14 00:02:00,70.0,62.0,29.95,North,360,0.0,0.0,77,0.00,,,0.00,,2013-06-14 05:02:00,
2013-06-14 00:11:00,70.0,62.0,29.95,North,360,0.0,0.0,77,0.00,,,0.00,,2013-06-14 05:11:00,
2013-06-14 00:22:00,69.0,62.0,29.96,North,360,0.0,0.0,79,0.00,,,0.00,,2013-06-14 05:22:00,
2013-06-14 00:34:00,69.0,62.0,29.96,North,360,0.0,0.0,79,0.00,,,0.00,,2013-06-14 05:34:00,
2013-06-14 00:43:00,69.0,62.0,29.96,North,360,0.0,0.0,79,0.00,,,0.00,,2013-06-14 05:43:00,
2013-06-14 00:52:00,68.0,62.0,29.97,North,360,0.0,0.0,82,0.00,,,0.00,,2013-06-14 05:52:00,
2013-06-14 01:02:00,68.0,62.0,29.97,North,360,0.0,0.0,82,0.00,,,0.00,,2013-06-14 06:02:00,
2013-06-14 01:12:00,68.0,62.0,29.97,North,360,0.0,0.0,82,0.00,,,0.00,,2013-06-14 06:12:00,
2013-06-14 01:22:00,68.0,62.0,29.98,North,360,0.0,0.0,82,0.00,,,0.00,,2013-06-14 06:22:00,
2013-06-14 01:33:00,68.0,62.0,29.98,North,360,0.0,0.0,82,0.00,,,0.00,,2013-06-14 06:33:00,
2013-06-14 01:43:00,68.0,62.0,29.98,North,360,0.0,0.0,82,0.00,,,0.00,,2013-06-14 06:43:00,
2013-06-14 01:52:00,68.0,63.0,29.97,North,360,0.0,0.0,83,0.00,,,0.00,,2013-06-14 06:52:00,
2013-06-14 02:02:00,68.0,63.0,29.97,North,360,0.0,0.0,83,0.00,,,0.00,,2013-06-14 07:02:00,
2013-06-14 02:12:00,68.0,63.0,29.97,North,360,0.0,0.0,83,0.00,,,0.00,,2013-06-14 07:12:00,
2013-06-14 02:22:00,68.0,63.0,29.98,North,360,0.0,0.0,83,0.00,,,0.00,,2013-06-14 07:22:00,
2013-06-14 02:33:00,68.0,63.0,29.98,North,360,0.0,0.0,83,0.00,,,0.00,,2013-06-14 07:33:00,
2013-06-14 02:43:00,68.0,63.0,29.98,North,360,0.0,0.0,83,0.00,,,0.00,,2013-06-14 07:43:00,
2013-06-14 02:53:00,68.0,63.0,29.97,North,360,0.0,0.0,83,0.00,,,0.00,,2013-06-14 07:53:00,
2013-06-14 03:02:00,68.0,63.0,29.97,North,360,0.0,0.0,83,0.00,,,0.00,,2013-06-14 08:02:00,
2013-06-14 03:12:00,68.0,63.0,29.97,North,360,0.0,0.0,83,0.00,,,0.00,,2013-06-14 08:12:00,
2013-06-14 03:23:00,67.0,62.0,29.98,North,360,0.0,0.0,84,0.00,,,0.00,,2013-06-14 08:23:00,
2013-06-14 03:33:00,67.0,62.0,29.98,North,360,0.0,0.0,84,0.00,,,0.00,,2013-06-14 08:33:00,
2013-06-14 03:43:00,67.0,62.0,29.98,North,360,0.0,0.0,84,0.00,,,0.00,,2013-06-14 08:43:00,
2013-06-14 03:53:00,67.0,62.0,29.98,North,360,0.0,0.0,85,0.00,,,0.00,,2013-06-14 08:53:00,
2013-06-14 04:02:00,67.0,62.0,29.98,North,360,0.0,0.0,85,0.00,,,0.00,,2013-06-14 09:02:00,
2013-06-14 04:12:00,67.0,62.0,29.98,North,360,0.0,0.0,85,0.00,,,0.00,,2013-06-14 09:12:00,
2013-06-14 04:22:00,67.0,62.0,29.97,North,1,0.0,1.0,85,0.00,,,0.00,,2013-06-14 09:22:00,
2013-06-14 04:33:00,67.0,62.0,29.97,North,1,0.0,1.0,85,0.00,,,0.00,,2013-06-14 09:33:00,
2013-06-14 04:43:00,67.0,62.0,29.97,North,1,0.0,1.0,85,0.00,,,0.00,,2013-06-14 09:43:00,
2013-06-14 04:53:00,66.0,62.0,29.96,North,360,0.0,0.0,87,0.00,,,0.00,,2013-06-14 09:53:00,
2013-06-14 05:01:00,66.0,62.0,29.96,North,360,0.0,0.0,87,0.00,,,0.00,,2013-06-14 10:01:00,
2013-06-14 05:11:00,66.0,62.0,29.96,North,360,0.0,0.0,87,0.00,,,0.00,,2013-06-14 10:11:00,
2013-06-14 05:22:00,66.0,62.0,29.95,ENE,77,1.0,3.0,88,0.00,,,0.00,,2013-06-14 10:22:00,
2013-06-14 05:34:00,66.0,62.0,29.95,ENE,77,1.0,3.0,88,0.00,,,0.00,,2013-06-14 10:34:00,
2013-06-14 05:44:00,66.0,62.0,29.95,ENE,77,1.0,3.0,88,0.00,,,0.00,,2013-06-14 10:44:00,
2013-06-14 05:53:00,67.0,63.0,29.94,East,87,2.0,3.0,88,0.00,,,0.00,,2013-06-14 10:53:00,
2013-06-14 06:02:00,67.0,63.0,29.94,East,87,2.0,3.0,88,0.00,,,0.00,,2013-06-14 11:02:00,
2013-06-14 06:11:00,67.0,63.0,29.94,East,87,2.0,3.0,88,0.00,,,0.00,,2013-06-14 11:11:00,
2013-06-14 06:23:00,67.0,63.0,29.97,East,90,1.0,1.0,88,0.00,,,0.00,,2013-06-14 11:23:00,
2013-06-14 06:32:00,67.0,63.0,29.97,East,90,1.0,1.0,88,0.00,,,0.00,,2013-06-14 11:32:00,
2013-06-14 06:43:00,67.0,63.0,29.97,East,90,1.0,1.0,88,0.00,,,0.00,,2013-06-14 11:43:00,
2013-06-14 06:52:00,68.0,64.0,29.98,East,88,1.0,2.0,88,0.00,,,0.00,,2013-06-14 11:52:00,
2013-06-14 07:02:00,68.0,64.0,29.98,East,88,1.0,2.0,88,0.00,,,0.00,,2013-06-14 12:02:00,
2013-06-14 07:12:00,68.0,64.0,29.98,East,88,1.0,2.0,88,0.00,,,0.00,,2013-06-14 12:12:00,
2013-06-14 07:22:00,68.0,64.0,29.99,East,90,1.0,1.0,88,0.00,,,0.00,,2013-06-14 12:22:00,
2013-06-14 07:33:00,68.0,64.0,29.99,East,90,1.0,1.0,88,0.00,,,0.00,,2013-06-14 12:33:00,
2013-06-14 07:43:00,68.0,64.0,29.99,East,90,1.0,1.0,88,0.00,,,0.00,,2013-06-14 12:43:00,
2013-06-14 07:52:00,69.0,65.0,29.98,East,85,1.0,1.0,87,0.00,,,0.00,,2013-06-14 12:52:00,
2013-06-14 08:02:00,69.0,65.0,29.98,East,85,1.0,1.0,87,0.00,,,0.00,,2013-06-14 13:02:00,
2013-06-14 08:11:00,69.0,65.0,29.98,East,85,1.0,1.0,87,0.00,,,0.00,,2013-06-14 13:11:00,
2013-06-14 08:22:00,71.0,66.0,29.98,SE,134,3.0,4.0,84,0.00,,,0.00,,2013-06-14 13:22:00,
2013-06-14 08:33:00,71.0,66.0,29.98,SE,134,3.0,4.0,84,0.00,,,0.00,,2013-06-14 13:33:00,
2013-06-14 08:43:00,71.0,66.0,29.98,SE,134,3.0,4.0,84,0.00,,,0.00,,2013-06-14 13:43:00,
2013-06-14 08:53:00,72.0,66.0,29.98,ESE,118,4.0,8.0,81,0.00,,,0.00,,2013-06-14 13:53:00,
2013-06-14 09:02:00,72.0,66.0,29.98,ESE,118,4.0,8.0,81,0.00,,,0.00,,2013-06-14 14:02:00,
2013-06-14 09:11:00,72.0,66.0,29.98,ESE,118,4.0,8.0,81,0.00,,,0.00,,2013-06-14 14:11:00,
2013-06-14 09:22:00,73.0,66.0,29.98,East,84,4.0,4.0,78,0.00,,,0.00,,2013-06-14 14:22:00,
2013-06-14 09:34:00,73.0,66.0,29.98,East,84,4.0,4.0,78,0.00,,,0.00,,2013-06-14 14:34:00,
2013-06-14 09:43:00,73.0,66.0,29.98,East,84,4.0,4.0,78,0.00,,,0.00,,2013-06-14 14:43:00,
2013-06-14 09:52:00,74.0,66.0,29.98,SE,127,3.0,3.0,76,0.00,,,0.00,,2013-06-14 14:52:00,
2013-06-14 10:01:00,74.0,66.0,29.98,SE,127,3.0,3.0,76,0.00,,,0.00,,2013-06-14 15:01:00,
2013-06-14 10:11:00,74.0,66.0,29.98,SE,127,3.0,3.0,76,0.00,,,0.00,,2013-06-14 15:11:00,
2013-06-14 10:23:00,76.0,65.0,29.94,SE,140,4.0,6.0,70,0.00,,,0.00,,2013-06-14 15:23:00,
2013-06-14 10:33:00,76.0,65.0,29.94,SE,140,4.0,6.0,70,0.00,,,0.00,,2013-06-14 15:33:00,
2013-06-14 10:44:00,76.0,65.0,29.94,SE,140,4.0,6.0,70,0.00,,,0.00,,2013-06-14 15:44:00,
2013-06-14 10:53:00,78.0,65.0,29.96,ESE,116,6.0,13.0,65,0.00,,,0.00,,2013-06-14 15:53:00,
2013-06-14 11:01:00,78.0,65.0,29.96,ESE,116,6.0,13.0,65,0.00,,,0.00,,2013-06-14 16:01:00,
2013-06-14 11:11:00,78.0,65.0,29.96,ESE,116,6.0,13.0,65,0.00,,,0.00,,2013-06-14 16:11:00,
2013-06-14 11:22:00,80.0,66.0,29.96,ESE,102,3.0,5.0,62,0.00,,,0.00,,2013-06-14 16:22:00,
2013-06-14 11:33:00,80.0,66.0,29.96,ESE,102,3.0,5.0,62,0.00,,,0.00,,2013-06-14 16:33:00,
2013-06-14 11:43:00,80.0,66.0,29.96,ESE,102,3.0,5.0,62,0.00,,,0.00,,2013-06-14 16:43:00,
2013-06-14 11:53:00,80.0,67.0,29.96,NE,50,3.0,3.0,64,0.00,,,0.00,,2013-06-14 16:53:00,
2013-06-14 12:02:00,80.0,67.0,29.96,NE,50,3.0,3.0,64,0.00,,,0.00,,2013-06-14 17:02:00,
2013-06-14 12:11:00,80.0,67.0,29.96,NE,50,3.0,3.0,64,0.00,,,0.00,,2013-06-14 17:11:00,
2013-06-14 12:22:00,82.0,69.0,29.95,East,94,2.0,4.0,64,0.00,,,0.00,,2013-06-14 17:22:00,
2013-06-14 12:34:00,82.0,69.0,29.95,East,94,2.0,4.0,64,0.00,,,0.00,,2013-06-14 17:34:00,
2013-06-14 12:43:00,82.0,69.0,29.95,East,94,2.0,4.0,64,0.00,,,0.00,,2013-06-14 17:43:00,
2013-06-14 12:53:00,83.0,69.0,29.94,ESE,122,4.0,4.0,62,0.00,,,0.00,,2013-06-14 17:53:00,
2013-06-14 13:02:00,83.0,69.0,29.94,ESE,122,4.0,4.0,62,0.00,,,0.00,,2013-06-14 18:02:00,
2013-06-14 13:11:00,83.0,69.0,29.94,ESE,122,4.0,4.0,62,0.00,,,0.00,,2013-06-14 18:11:00,
2013-06-14 13:22:00,83.0,69.0,29.94,ESE,122,4.0,4.0,62,0.00,,,0.00,,2013-06-14 18:22:00,
2013-06-14 13:32:00,83.0,69.0,29.94,ESE,122,4.0,4.0,62,0.00,,,0.00,,2013-06-14 18:32:00,
2013-06-14 13:52:00,85.0,70.0,29.93,SE,134,3.0,3.0,61,0.00,,,0.00,,2013-06-14 18:52:00,
2013-06-14 14:01:00,85.0,70.0,29.93,SE,134,3.0,3.0,61,0.00,,,0.00,,2013-06-14 19:01:00,
2013-06-14 14:11:00,85.0,70.0,29.93,SE,134,3.0,3.0,61,0.00,,,0.00,,2013-06-14 19:11:00,
2013-06-14 14:22:00,86.0,71.0,29.93,SE,124,2.0,4.0,62,0.00,,,0.00,,2013-06-14 19:22:00,
2013-06-14 14:32:00,86.0,71.0,29.93,SE,124,2.0,4.0,62,0.00,,,0.00,,2013-06-14 19:32:00,
2013-06-14 14:43:00,86.0,71.0,29.93,SE,124,2.0,4.0,62,0.00,,,0.00,,2013-06-14 19:43:00,
2013-06-14 14:53:00,87.0,72.0,29.91,ESE,119,4.0,4.0,61,0.00,,,0.00,,2013-06-14 19:53:00,
2013-06-14 15:02:00,87.0,72.0,29.91,ESE,119,4.0,4.0,61,0.00,,,0.00,,2013-06-14 20:02:00,
2013-06-14 15:11:00,87.0,72.0,29.91,ESE,119,4.0,4.0,61,0.00,,,0.00,,2013-06-14 20:11:00,
2013-06-14 15:22:00,87.0,73.0,29.89,ESE,116,2.0,4.0,63,0.00,,,0.00,,2013-06-14 20:22:00,
2013-06-14 15:33:00,87.0,73.0,29.89,ESE,116,2.0,4.0,63,0.00,,,0.00,,2013-06-14 20:33:00,
2013-06-14 15:43:00,87.0,73.0,29.89,ESE,116,2.0,4.0,63,0.00,,,0.00,,2013-06-14 20:43:00,
2013-06-14 15:53:00,88.0,73.0,29.89,ESE,115,3.0,4.0,61,0.00,,,0.00,,2013-06-14 20:53:00,
2013-06-14 16:02:00,88.0,73.0,29.89,ESE,115,3.0,4.0,61,0.00,,,0.00,,2013-06-14 21:02:00,
2013-06-14 16:11:00,88.0,73.0,29.89,ESE,115,3.0,4.0,61,0.00,,,0.00,,2013-06-14 21:11:00,
2013-06-14 16:22:00,87.0,73.0,29.88,ESE,110,2.0,4.0,63,0.00,,,0.00,,2013-06-14 21:22:00,
2013-06-14 16:34:00,87.0,73.0,29.88,ESE,110,2.0,4.0,63,0.00,,,0.00,,2013-06-14 21:34:00,
2013-06-14 16:43:00,87.0,73.0,29.88,ESE,110,2.0,4.0,63,0.00,,,0.00,,2013-06-14 21:43:00,
2013-06-14 16:52:00,87.0,73.0,29.87,ESE,113,4.0,6.0,63,0.00,,,0.00,,2013-06-14 21:52:00,
2013-06-14 17:01:00,87.0,73.0,29.87,ESE,113,4.0,6.0,63,0.00,,,0.00,,2013-06-14 22:01:00,
2013-06-14 17:11:00,87.0,73.0,29.87,ESE,113,4.0,6.0,63,0.00,,,0.00,,2013-06-14 22:11:00,
2013-06-14 17:22:00,86.0,73.0,29.87,ESE,109,5.0,5.0,66,0.00,,,0.00,,2013-06-14 22:22:00,
2013-06-14 17:33:00,86.0,73.0,29.87,ESE,109,5.0,5.0,66,0.00,,,0.00,,2013-06-14 22:33:00,
2013-06-14 17:43:00,86.0,73.0,29.87,ESE,109,5.0,5.0,66,0.00,,,0.00,,2013-06-14 22:43:00,
2013-06-14 17:53:00,85.0,72.0,29.85,ESE,108,3.0,5.0,66,0.00,,,0.00,,2013-06-14 22:53:00,
2013-06-14 18:01:00,85.0,72.0,29.85,ESE,108,3.0,5.0,66,0.00,,,0.00,,2013-06-14 23:01:00,
2013-06-14 18:11:00,85.0,72.0,29.85,ESE,108,3.0,5.0,66,0.00,,,0.00,,2013-06-14 23:11:00,
2013-06-14 18:22:00,85.0,73.0,29.85,ESE,119,6.0,6.0,68,0.00,,,0.00,,2013-06-14 23:22:00,
2013-06-14 18:33:00,85.0,73.0,29.85,ESE,119,6.0,6.0,68,0.00,,,0.00,,2013-06-14 23:33:00,
2013-06-14 18:43:00,85.0,73.0,29.85,ESE,119,6.0,6.0,68,0.00,,,0.00,,2013-06-14 23:43:00,
2013-06-14 18:52:00,85.0,74.0,29.85,ESE,121,6.0,6.0,69,0.00,,,0.00,,2013-06-14 23:52:00,
2013-06-14 19:01:00,85.0,74.0,29.85,ESE,121,6.0,6.0,69,0.00,,,0.00,,2013-06-15 00:01:00,
2013-06-14 19:11:00,85.0,74.0,29.85,ESE,121,6.0,6.0,69,0.00,,,0.00,,2013-06-15 00:11:00,
2013-06-14 19:23:00,84.0,73.0,29.86,SE,144,5.0,5.0,69,0.00,,,0.00,,2013-06-15 00:23:00,
2013-06-14 19:34:00,84.0,73.0,29.86,SE,144,5.0,5.0,69,0.00,,,0.00,,2013-06-15 00:34:00,
2013-06-14 19:43:00,84.0,73.0,29.86,SE,144,5.0,5.0,69,0.00,,,0.00,,2013-06-15 00:43:00,
2013-06-14 19:53:00,84.0,73.0,29.86,SE,144,5.0,5.0,69,0.00,,,0.00,,2013-06-15 00:53:00,
2013-06-14 20:01:00,84.0,74.0,29.86,ESE,123,4.0,4.0,71,0.00,,,0.00,,2013-06-15 01:01:00,
2013-06-14 20:11:00,84.0,74.0,29.86,ESE,123,4.0,4.0,71,0.00,,,0.00,,2013-06-15 01:11:00,
2013-06-14 20:22:00,84.0,74.0,29.86,ESE,123,4.0,4.0,71,0.00,,,0.00,,2013-06-15 01:22:00,
2013-06-14 20:33:00,83.0,73.0,29.87,East,101,2.0,4.0,71,0.00,,,0.00,,2013-06-15 01:33:00,
2013-06-14 20:43:00,83.0,73.0,29.87,East,101,2.0,4.0,71,0.00,,,0.00,,2013-06-15 01:43:00,
2013-06-14 20:54:00,83.0,73.0,29.87,East,101,2.0,4.0,71,0.00,,,0.00,,2013-06-15 01:54:00,
2013-06-14 21:02:00,82.0,72.0,29.87,ESE,118,2.0,3.0,72,0.00,,,0.00,,2013-06-15 02:02:00,
2013-06-14 21:11:00,82.0,72.0,29.87,ESE,118,2.0,3.0,72,0.00,,,0.00,,2013-06-15 02:11:00,
2013-06-14 21:23:00,82.0,72.0,29.87,ESE,118,2.0,3.0,72,0.00,,,0.00,,2013-06-15 02:23:00,
2013-06-14 21:33:00,81.0,72.0,29.86,SE,127,4.0,4.0,73,0.00,,,0.00,,2013-06-15 02:33:00,
2013-06-14 21:43:00,81.0,72.0,29.86,SE,127,4.0,4.0,73,0.00,,,0.00,,2013-06-15 02:43:00,
2013-06-14 21:53:00,81.0,72.0,29.86,SE,127,4.0,4.0,73,0.00,,,0.00,,2013-06-15 02:53:00,
2013-06-14 22:01:00,81.0,72.0,29.86,SE,127,4.0,4.0,73,0.00,,,0.00,,2013-06-15 03:01:00,
2013-06-14 22:11:00,81.0,72.0,29.86,SE,127,4.0,4.0,73,0.00,,,0.00,,2013-06-15 03:11:00,
2013-06-14 22:53:00,79.0,70.0,29.92,ESE,106,3.0,5.0,73,0.00,,,0.00,,2013-06-15 03:53:00,
2013-06-14 23:02:00,79.0,70.0,29.92,ESE,106,3.0,5.0,73,0.00,,,0.00,,2013-06-15 04:02:00,
2013-06-14 23:12:00,79.0,70.0,29.92,ESE,106,3.0,5.0,73,0.00,,,0.00,,2013-06-15 04:12:00,
2013-06-14 23:22:00,78.0,69.0,29.91,ESE,113,4.0,5.0,74,0.00,,,0.00,,2013-06-15 04:22:00,
2013-06-14 23:34:00,78.0,69.0,29.91,ESE,113,4.0,5.0,74,0.00,,,0.00,,2013-06-15 04:34:00,
2013-06-14 23:43:00,78.0,69.0,29.91,ESE,113,4.0,5.0,74,0.00,,,0.00,,2013-06-15 04:43:00,
2013-06-14 23:54:00,78.0,69.0,29.89,SE,126,3.0,4.0,74,0.00,,,0.00,,2013-06-15 04:54:00,